| time (UTC) | temp F | wind direction | speed knots | gust knots | rain 1hr in | rain 24hr in | rain mn in | humidity % | barometer mb |
| 20260505014621 | 50 | 194 | 10.4 | 15.6 | 0.00 | 0.00 | 0.00 | 96 | 1013.4 |
| 20260505014120 | 50 | 211 | 10.4 | 15.6 | 0.00 | 0.00 | 0.00 | 95 | 1013.5 |
| 20260505013620 | 50 | 195 | 10.4 | 13.9 | 0.00 | 0.00 | 0.00 | 95 | 1013.5 |
| 20260505013121 | 50 | 202 | 10.4 | 13.9 | 0.00 | 0.00 | 0.00 | 95 | 1013.6 |
| 20260505012624 | 51 | 202 | 8.7 | 13.0 | 0.00 | 0.00 | 0.00 | 95 | 1013.7 |
| 20260505012620 | 50 | 190 | 9.6 | 12.2 | 0.00 | 0.00 | 0.00 | 95 | 1013.6 |
| 20260505011728 | 51 | 182 | 12.2 | 16.5 | 0.00 | 0.00 | 0.00 | 94 | 1013.8 |
| 20260505011621 | 51 | 200 | 9.6 | 13.0 | 0.00 | 0.00 | 0.00 | 95 | 1013.7 |
| 20260505011124 | 51 | 186 | 9.6 | 16.5 | 0.00 | 0.00 | 0.00 | 94 | 1013.7 |
| 20260505011120 | 51 | 206 | 11.3 | 16.5 | 0.00 | 0.00 | 0.00 | 94 | 1013.8 |
| 20260505005619 | 51 | 215 | 13.0 | 16.5 | 0.00 | 0.00 | 0.00 | 95 | 1013.7 |
| 20260505005119 | 51 | 211 | 13.9 | 18.2 | 0.00 | 0.00 | 0.00 | 95 | 1013.8 |
| 20260505004619 | 51 | 207 | 13.9 | 18.2 | 0.00 | 0.00 | 0.00 | 95 | 1013.8 |
| 20260505004118 | 51 | 202 | 12.2 | 18.2 | 0.00 | 0.00 | 0.00 | 95 | 1013.8 |
| 20260505003619 | 51 | 202 | 11.3 | 18.2 | 0.00 | 0.00 | 0.00 | 95 | 1013.8 |
| 20260505003118 | 51 | 184 | 11.3 | 18.2 | 0.00 | 0.00 | 0.00 | 94 | 1013.8 |
| 20260505002623 | 51 | 200 | 11.3 | 17.4 | 0.00 | 0.00 | 0.00 | 94 | 1013.8 |
| 20260505002619 | 52 | 188 | 11.3 | 17.4 | 0.00 | 0.00 | 0.00 | 94 | 1013.8 |
| 20260505001618 | 52 | 173 | 12.2 | 17.4 | 0.00 | 0.00 | 0.00 | 94 | 1013.8 |
| 20260505001118 | 52 | 204 | 12.2 | 17.4 | 0.00 | 0.00 | 0.00 | 94 | 1013.8 |
| 20260505000618 | 52 | 197 | 12.2 | 15.6 | 0.00 | 0.00 | 0.00 | 93 | 1013.8 |
| 20260505000118 | 52 | 196 | 11.3 | 15.6 | 0.00 | 0.00 | 0.00 | 94 | 1013.8 |
| 20260504235619 | 53 | 180 | 11.3 | 15.6 | 0.00 | 0.00 | 0.00 | 94 | 1013.7 |
| 20260504235119 | 53 | 213 | 11.3 | 19.1 | 0.00 | 0.00 | 0.00 | 95 | 1013.7 |
| 20260504234618 | 52 | 203 | 12.2 | 19.1 | 0.00 | 0.00 | 0.00 | 94 | 1013.7 |
| 20260504234116 | 52 | 198 | 13.9 | 19.1 | 0.00 | 0.00 | 0.00 | 94 | 1013.7 |
| 20260504233616 | 52 | 201 | 13.9 | 19.1 | 0.00 | 0.00 | 0.00 | 94 | 1013.6 |
| 20260504233116 | 52 | 187 | 13.9 | 19.1 | 0.00 | 0.00 | 0.00 | 94 | 1013.6 |
| 20260504232616 | 52 | 196 | 13.0 | 19.1 | 0.00 | 0.00 | 0.00 | 94 | 1013.7 |
| 20260504232116 | 52 | 209 | 13.0 | 19.1 | 0.00 | 0.00 | 0.00 | 95 | 1013.7 |
| 20260504231616 | 51 | 188 | 12.2 | 19.1 | 0.00 | 0.00 | 0.00 | 95 | 1013.7 |
| 20260504231116 | 51 | 192 | 12.2 | 18.2 | 0.00 | 0.00 | 0.00 | 95 | 1013.8 |
| 20260504230616 | 51 | 195 | 12.2 | 18.2 | 0.00 | 0.00 | 0.00 | 94 | 1013.9 |
| 20260504230116 | 51 | 207 | 13.0 | 19.1 | 0.00 | 0.00 | 0.00 | 94 | 1013.9 |
| 20260504225616 | 51 | 196 | 15.6 | 22.6 | 0.00 | 0.00 | 0.00 | 94 | 1014.0 |
| 20260504225115 | 52 | 190 | 15.6 | 23.5 | 0.00 | 0.00 | 0.00 | 93 | 1013.9 |
| 20260504224616 | 52 | 184 | 14.8 | 24.3 | 0.00 | 0.00 | 0.00 | 92 | 1013.9 |
| 20260504224116 | 53 | 228 | 14.8 | 24.3 | 0.00 | 0.00 | 0.00 | 90 | 1014.0 |
| 20260504223616 | 52 | 194 | 15.6 | 23.5 | 0.00 | 0.00 | 0.00 | 90 | 1014.1 |
| 20260504223117 | 53 | 178 | 15.6 | 21.7 | 0.00 | 0.00 | 0.00 | 89 | 1014.1 |
| 20260504222614 | 53 | 200 | 15.6 | 25.2 | 0.00 | 0.00 | 0.00 | 91 | 1014.1 |
| 20260504222114 | 52 | 180 | 16.5 | 25.2 | 0.00 | 0.00 | 0.00 | 91 | 1014.1 |
| 20260504221616 | 53 | 198 | 14.8 | 25.2 | 0.00 | 0.00 | 0.00 | 89 | 1014.3 |
| 20260504221612 | 53 | 182 | 15.6 | 25.2 | 0.00 | 0.00 | 0.00 | 90 | 1014.0 |
| 20260504220611 | 53 | 198 | 14.8 | 25.2 | 0.00 | 0.00 | 0.00 | 91 | 1014.4 |
| 20260504220111 | 53 | 192 | 16.5 | 26.9 | 0.00 | 0.00 | 0.00 | 91 | 1014.5 |
| 20260504215612 | 52 | 192 | 18.2 | 32.2 | 0.00 | 0.00 | 0.00 | 90 | 1014.5 |
| 20260504215111 | 52 | 201 | 18.2 | 32.2 | 0.00 | 0.00 | 0.00 | 90 | 1014.4 |
| 20260504214612 | 52 | 161 | 18.2 | 26.9 | 0.00 | 0.00 | 0.00 | 90 | 1014.5 |
| 20260504214112 | 53 | 188 | 18.2 | 28.7 | 0.00 | 0.00 | 0.00 | 88 | 1014.5 |
| 20260504213615 | 54 | 165 | 18.2 | 26.9 | 0.00 | 0.00 | 0.00 | 87 | 1014.6 |
| 20260504213611 | 53 | 171 | 17.4 | 28.7 | 0.00 | 0.00 | 0.00 | 87 | 1014.5 |
| 20260504212611 | 53 | 177 | 18.2 | 27.8 | 0.00 | 0.00 | 0.00 | 88 | 1014.5 |
| 20260504212218 | 53 | 180 | 19.1 | 26.9 | 0.00 | 0.00 | 0.00 | 84 | 1014.5 |
| 20260504212111 | 53 | 171 | 18.2 | 27.8 | 0.00 | 0.00 | 0.00 | 87 | 1014.5 |
| 20260504211615 | 53 | 189 | 19.1 | 28.7 | 0.00 | 0.00 | 0.00 | 83 | 1014.6 |
| 20260504211611 | 53 | 182 | 19.1 | 28.7 | 0.00 | 0.00 | 0.00 | 85 | 1014.4 |
| 20260504210114 | 53 | 175 | 20.0 | 29.5 | 0.00 | 0.00 | 0.00 | 83 | 1014.5 |
| 20260504210108 | 53 | 172 | 19.1 | 26.9 | 0.00 | 0.00 | 0.00 | 83 | 1014.5 |
| 20260504205108 | 53 | 175 | 19.1 | 30.4 | 0.00 | 0.00 | 0.00 | 82 | 1014.5 |
| 20260504204608 | 53 | 178 | 18.2 | 30.4 | 0.00 | 0.00 | 0.00 | 82 | 1014.5 |
| 20260504204108 | 54 | 161 | 18.2 | 27.8 | 0.00 | 0.00 | 0.00 | 82 | 1014.4 |
| 20260504203716 | 53 | 198 | 18.2 | 27.8 | 0.00 | 0.00 | 0.00 | 82 | 1014.5 |
| 20260504203613 | 53 | 188 | 18.2 | 26.1 | 0.00 | 0.00 | 0.00 | 83 | 1014.4 |
| 20260504203608 | 53 | 182 | 19.1 | 27.8 | 0.00 | 0.00 | 0.00 | 82 | 1014.6 |
| 20260504202106 | 53 | 173 | 19.1 | 27.8 | 0.00 | 0.00 | 0.00 | 81 | 1014.4 |
| 20260504201606 | 54 | 177 | 18.2 | 26.9 | 0.00 | 0.00 | 0.00 | 79 | 1014.4 |
| 20260504201106 | 54 | 183 | 16.5 | 26.9 | 0.00 | 0.00 | 0.00 | 79 | 1014.4 |
| 20260504200612 | 55 | 161 | 14.8 | 24.3 | 0.00 | 0.00 | 0.00 | 78 | 1014.4 |
| 20260504200606 | 55 | 176 | 16.5 | 24.3 | 0.00 | 0.00 | 0.00 | 77 | 1014.5 |
| 20260504195605 | 55 | 184 | 13.9 | 20.9 | 0.00 | 0.00 | 0.00 | 79 | 1014.6 |
| 20260504195106 | 55 | 162 | 13.9 | 21.7 | 0.00 | 0.00 | 0.00 | 77 | 1014.6 |
| 20260504194603 | 55 | 190 | 13.0 | 21.7 | 0.00 | 0.00 | 0.00 | 76 | 1014.6 |
| 20260504194103 | 55 | 192 | 13.9 | 20.0 | 0.00 | 0.00 | 0.00 | 78 | 1014.6 |
| 20260504193602 | 54 | 181 | 13.9 | 20.9 | 0.00 | 0.00 | 0.00 | 80 | 1014.8 |
| 20260504193101 | 54 | 175 | 13.0 | 20.9 | 0.00 | 0.00 | 0.00 | 80 | 1014.8 |
| 20260504192602 | 53 | 203 | 13.0 | 20.0 | 0.00 | 0.00 | 0.00 | 79 | 1014.6 |
| 20260504192101 | 54 | 149 | 13.0 | 20.0 | 0.00 | 0.00 | 0.00 | 80 | 1014.8 |
| 20260504191602 | 54 | 165 | 12.2 | 20.0 | 0.00 | 0.00 | 0.00 | 81 | 1014.9 |
| 20260504191102 | 54 | 194 | 10.4 | 20.0 | 0.00 | 0.00 | 0.00 | 79 | 1014.8 |
| 20260504190601 | 55 | 188 | 8.7 | 16.5 | 0.00 | 0.00 | 0.00 | 82 | 1015.0 |
| 20260504185601 | 55 | 207 | 8.7 | 13.9 | 0.00 | 0.00 | 0.00 | 81 | 1014.9 |
| 20260504185102 | 54 | 176 | 7.8 | 13.9 | 0.00 | 0.00 | 0.00 | 84 | 1014.9 |
| 20260504184601 | 54 | 183 | 8.7 | 13.9 | 0.00 | 0.00 | 0.00 | 83 | 1014.9 |
| 20260504184102 | 54 | 191 | 9.6 | 13.9 | 0.00 | 0.00 | 0.00 | 84 | 1014.9 |
| 20260504183602 | 54 | 176 | 8.7 | 13.9 | 0.00 | 0.00 | 0.00 | 83 | 1014.9 |
| 20260504183101 | 54 | 188 | 8.7 | 13.9 | 0.00 | 0.00 | 0.00 | 82 | 1014.8 |
| 20260504182601 | 55 | 190 | 7.8 | 13.9 | 0.00 | 0.00 | 0.00 | 81 | 1014.9 |
| 20260504182102 | 55 | 169 | 7.0 | 13.0 | 0.00 | 0.00 | 0.00 | 83 | 1014.9 |
| 20260504181606 | 55 | 203 | 6.1 | 10.4 | 0.00 | 0.00 | 0.00 | 85 | 1014.9 |
| 20260504181602 | 55 | 195 | 6.1 | 12.2 | 0.00 | 0.00 | 0.00 | 83 | 1015.0 |
| 20260504180601 | 53 | 183 | 6.1 | 10.4 | 0.00 | 0.00 | 0.00 | 85 | 1015.0 |
| 20260504175602 | 53 | 207 | 7.8 | 11.3 | 0.00 | 0.00 | 0.00 | 86 | 1014.9 |
| 20260504175102 | 53 | 190 | 7.8 | 12.2 | 0.00 | 0.00 | 0.00 | 87 | 1014.9 |
| 20260504174602 | 53 | 190 | 7.8 | 13.0 | 0.00 | 0.00 | 0.00 | 87 | 1014.9 |
| 20260504174105 | 52 | 180 | 8.7 | 13.9 | 0.00 | 0.00 | 0.00 | 88 | 1014.8 |
| 20260504174101 | 52 | 175 | 7.8 | 13.0 | 0.00 | 0.00 | 0.00 | 86 | 1014.8 |
| 20260504173106 | 52 | 175 | 7.8 | 12.2 | 0.00 | 0.00 | 0.00 | 86 | 1014.8 |
| 20260504173101 | 52 | 202 | 8.7 | 13.9 | 0.00 | 0.00 | 0.00 | 87 | 1014.8 |
| 20260504172105 | 54 | 186 | 5.2 | 11.3 | 0.00 | 0.00 | 0.00 | 85 | 1014.8 |
| 20260504172101 | 53 | 173 | 7.0 | 11.3 | 0.00 | 0.00 | 0.00 | 85 | 1014.5 |
| 20260504171708 | 54 | 205 | 3.5 | 10.4 | 0.00 | 0.00 | 0.00 | 85 | 1014.6 |
| 20260504170601 | 53 | 180 | 4.3 | 9.6 | 0.00 | 0.00 | 0.00 | 84 | 1014.5 |
| 20260504151057 | 51 | 136 | 0.0 | 0.0 | 0.00 | 0.00 | 0.00 | 89 | 1014.1 |
| 20260504150558 | 51 | 136 | 0.0 | 0.0 | 0.00 | 0.00 | 0.00 | 89 | 1014.0 |
| 20260504141058 | 49 | 136 | 0.9 | 2.6 | 0.00 | 0.00 | 0.00 | 89 | 1013.9 |
| 20260504141054 | 49 | 128 | 0.9 | 2.6 | 0.00 | 0.00 | 0.00 | 90 | 1013.7 |
| 20260504130552 | 49 | 206 | 0.0 | 1.7 | 0.00 | 0.00 | 0.00 | 89 | 1013.4 |
| 20260504110542 | 50 | 270 | 0.0 | 1.7 | 0.00 | 0.00 | 0.00 | 88 | 1013.4 |
| 20260504110538 | 50 | 270 | 0.0 | 1.7 | 0.00 | 0.00 | 0.00 | 88 | 1013.4 |
| 20260504100534 | 50 | 196 | 0.9 | 2.6 | 0.00 | 0.00 | 0.00 | 84 | 1013.0 |
| 20260504081031 | 51 | 220 | 7.0 | 10.4 | 0.00 | 0.00 | 0.00 | 80 | 1014.3 |
| 20260504080531 | 51 | 229 | 7.8 | 11.3 | 0.00 | 0.00 | 0.00 | 79 | 1014.3 |
| 20260504050527 | 51 | 195 | 0.0 | 1.7 | 0.00 | 0.00 | 0.00 | 91 | 1013.9 |
| 20260504045527 | 51 | 195 | 0.9 | 2.6 | 0.00 | 0.00 | 0.00 | 91 | 1014.0 |
| 20260504045027 | 51 | 195 | 0.9 | 2.6 | 0.00 | 0.00 | 0.00 | 90 | 1014.0 |
| 20260504044528 | 51 | 195 | 0.0 | 2.6 | 0.00 | 0.00 | 0.00 | 90 | 1014.0 |
| 20260504044027 | 51 | 195 | 0.0 | 2.6 | 0.00 | 0.00 | 0.00 | 90 | 1013.8 |
| 20260504043527 | 51 | 195 | 0.9 | 3.5 | 0.00 | 0.00 | 0.00 | 90 | 1013.7 |
| 20260504043029 | 51 | 195 | 1.7 | 5.2 | 0.00 | 0.00 | 0.00 | 90 | 1013.7 |
| 20260504043025 | 51 | 195 | 2.6 | 5.2 | 0.00 | 0.00 | 0.00 | 90 | 1013.8 |
| 20260504042632 | 51 | 195 | 3.5 | 5.2 | 0.00 | 0.00 | 0.00 | 90 | 1013.8 |
| 20260504041522 | 51 | 195 | 3.5 | 5.2 | 0.00 | 0.00 | 0.00 | 90 | 1013.8 |
| 20260504041020 | 51 | 195 | 3.5 | 7.0 | 0.00 | 0.00 | 0.00 | 90 | 1013.6 |
| 20260504040521 | 51 | 198 | 4.3 | 7.0 | 0.00 | 0.00 | 0.00 | 90 | 1013.6 |
| 20260504040021 | 51 | 192 | 5.2 | 7.8 | 0.00 | 0.00 | 0.00 | 89 | 1013.4 |
| 20260504035521 | 51 | 207 | 5.2 | 7.8 | 0.00 | 0.00 | 0.00 | 89 | 1013.4 |
| 20260504035022 | 51 | 212 | 4.3 | 7.0 | 0.00 | 0.00 | 0.00 | 87 | 1013.4 |
| 20260504034521 | 51 | 209 | 3.5 | 6.1 | 0.00 | 0.00 | 0.00 | 87 | 1013.4 |
| 20260504034020 | 51 | 253 | 2.6 | 6.1 | 0.00 | 0.00 | 0.00 | 86 | 1013.2 |
| 20260504033523 | 51 | 269 | 2.6 | 7.0 | 0.00 | 0.00 | 0.00 | 85 | 1013.4 |
| 20260504033519 | 51 | 252 | 2.6 | 6.1 | 0.00 | 0.00 | 0.00 | 86 | 1013.2 |
| 20260504033126 | 52 | 272 | 2.6 | 7.0 | 0.00 | 0.00 | 0.00 | 85 | 1013.0 |
| 20260504032019 | 52 | 260 | 2.6 | 6.1 | 0.00 | 0.00 | 0.00 | 85 | 1013.0 |
| 20260504031519 | 52 | 267 | 3.5 | 7.0 | 0.00 | 0.00 | 0.00 | 85 | 1012.9 |
| 20260504031019 | 52 | 281 | 5.2 | 7.8 | 0.00 | 0.00 | 0.00 | 85 | 1012.9 |
| 20260504030519 | 52 | 311 | 4.3 | 7.8 | 0.00 | 0.00 | 0.00 | 84 | 1012.7 |
| 20260504030019 | 52 | 291 | 4.3 | 7.0 | 0.00 | 0.00 | 0.00 | 84 | 1012.8 |
| 20260504025519 | 52 | 294 | 2.6 | 7.0 | 0.00 | 0.00 | 0.00 | 84 | 1012.8 |
| 20260504025018 | 52 | 280 | 2.6 | 6.1 | 0.00 | 0.00 | 0.00 | 84 | 1012.8 |
| 20260504024517 | 52 | 221 | 3.5 | 6.1 | 0.00 | 0.00 | 0.00 | 83 | 1012.8 |
| 20260504024016 | 53 | 214 | 3.5 | 6.1 | 0.00 | 0.00 | 0.00 | 82 | 1012.8 |
| 20260504023517 | 53 | 219 | 3.5 | 6.1 | 0.00 | 0.00 | 0.00 | 83 | 1012.6 |
| 20260504023017 | 53 | 235 | 3.5 | 6.1 | 0.00 | 0.00 | 0.00 | 82 | 1012.6 |
| 20260504022521 | 53 | 232 | 2.6 | 6.1 | 0.00 | 0.00 | 0.00 | 81 | 1012.6 |
| 20260504022517 | 53 | 227 | 2.6 | 6.1 | 0.00 | 0.00 | 0.00 | 81 | 1012.6 |
| 20260504021517 | 53 | 243 | 3.5 | 6.1 | 0.00 | 0.00 | 0.00 | 82 | 1012.6 |
| 20260504021017 | 52 | 244 | 3.5 | 6.1 | 0.00 | 0.00 | 0.00 | 83 | 1012.5 |
| 20260504020521 | 52 | 205 | 3.5 | 4.3 | 0.00 | 0.00 | 0.00 | 84 | 1012.6 |
| 20260504020517 | 52 | 241 | 3.5 | 5.2 | 0.00 | 0.00 | 0.00 | 83 | 1012.5 |
| 20260504015520 | 52 | 207 | 5.2 | 7.8 | 0.00 | 0.00 | 0.00 | 85 | 1012.4 |
| 20260504015515 | 52 | 205 | 3.5 | 5.2 | 0.00 | 0.00 | 0.00 | 85 | 1012.6 |
| 20260504015015 | 52 | 205 | 4.3 | 7.8 | 0.00 | 0.00 | 0.00 | 85 | 1012.7 |